Location: 81360 Arifat, France
(43.7204°N, 2.3408°E)
Time: 07:38:36
(UTC+01:00)

Transit 4A - All Passes

Search period start: 11 December 2025 00:00
Search period end: 21 December 2025 00:00
Orbit: 869 x 972 km, 66.8° (Epoch: 10 December)

Date Brightness Start Highest point End Pass type
(mag) Time Alt. Az. Time Alt. Az. Time Alt. Az.
11 Dec - 02:46:56 10° N 02:49:48 14° NNE 02:52:43 10° ENE visible
11 Dec - 04:31:46 10° NNW 04:37:36 50° NE 04:43:33 10° SE visible
11 Dec - 06:18:30 10° NW 06:23:40 30° WSW 06:28:57 10° SSW visible
11 Dec - 19:39:46 10° S 19:45:19 49° ESE 19:50:55 10° NE visible
11 Dec - 21:26:42 10° WSW 21:31:50 31° NW 21:37:01 10° NNE visible
12 Dec - 02:55:12 10° N 02:59:03 17° NE 03:02:57 10° ENE visible
12 Dec - 04:40:27 10° NNW 04:46:28 70° ENE 04:52:36 10° SE visible
12 Dec - 06:27:52 10° WNW 06:32:13 21° WSW 06:36:37 10° SSW visible
12 Dec - 18:08:15 10° ESE 18:08:47 10° E 18:09:19 10° E visible
12 Dec - 19:48:14 10° SSW 19:54:00 73° ESE 19:59:49 10° NE visible
12 Dec - 21:36:17 10° W 21:40:53 24° NW 21:45:33 10° NNE visible
13 Dec - 03:03:37 10° N 03:08:13 22° NE 03:12:54 10° E visible
13 Dec - 04:49:13 10° NNW 04:55:15 84° WSW 05:01:26 10° SSE visible
13 Dec - 06:37:51 10° WNW 06:40:41 14° WSW 06:43:32 10° SW visible
13 Dec - 18:13:43 10° SE 18:17:12 16° ESE 18:20:41 10° ENE visible
13 Dec - 19:56:57 10° SW 20:02:44 79° WNW 20:08:37 10° NNE visible
13 Dec - 21:46:07 10° W 21:50:02 18° NW 21:54:00 10° N visible
14 Dec - 03:12:08 10° NNW 03:17:18 29° NE 03:22:35 10° ESE visible
14 Dec - 04:58:04 10° NW 05:03:59 59° WSW 05:10:02 10° SSE visible
14 Dec - 18:21:05 10° SSE 18:25:42 25° ESE 18:30:19 10° NE visible
14 Dec - 20:05:54 10° SW 20:11:35 55° NW 20:17:20 10° NNE visible
14 Dec - 21:56:14 10° WNW 21:59:16 14° NNW 22:02:19 10° N visible
15 Dec - 01:36:20 10° N 01:38:13 11° NNE 01:40:07 10° NE night (unlit)
15 Dec - 03:20:42 10° NNW 03:26:18 39° NE 03:32:02 10° ESE visible
15 Dec - 05:07:03 10° NW 05:12:38 40° WSW 05:18:20 10° S visible
15 Dec - 18:29:00 10° S 18:34:15 37° ESE 18:39:33 10° NE visible
15 Dec - 20:15:04 10° WSW 20:20:29 40° NW 20:25:59 10° NNE visible
15 Dec - 22:06:51 10° NW 22:08:34 11° NNW 22:10:18 10° N visible
16 Dec - 01:44:21 10° N 01:47:32 14° NNE 01:50:45 10° ENE night (unlit)
16 Dec - 03:29:19 10° NNW 03:35:14 54° NE 03:41:16 10° SE visible
16 Dec - 05:16:12 10° NW 05:21:13 28° WSW 05:26:20 10° SSW visible
16 Dec - 18:37:15 10° S 18:42:52 55° ESE 18:48:33 10° NE visible
16 Dec - 20:24:28 10° WSW 20:29:29 29° NW 20:34:34 10° NNE visible
17 Dec - 01:52:41 10° N 01:56:45 18° NE 02:00:54 10° E night (unlit)
17 Dec - 03:38:02 10° NNW 03:44:04 76° ENE 03:50:16 10° SE night (unlit)
17 Dec - 05:25:41 10° WNW 05:29:45 19° WSW 05:33:52 10° SSW visible
17 Dec - 17:04:24 10° ESE 17:06:16 12° E 17:08:09 10° E daylight
17 Dec - 18:45:46 10° SSW 18:51:34 80° ESE 18:57:26 10° NNE visible
17 Dec - 20:34:06 10° W 20:38:34 22° NW 20:43:05 10° N visible
18 Dec - 02:01:07 10° NNW 02:05:54 24° NE 02:10:46 10° E night (unlit)
18 Dec - 03:46:49 10° NW 03:52:51 77° WSW 03:59:02 10° SSE night (unlit)
18 Dec - 05:35:58 10° W 05:38:12 12° WSW 05:40:27 10° WSW night (unlit)
18 Dec - 17:10:53 10° SSE 17:14:43 18° ESE 17:18:33 10° ENE daylight
18 Dec - 18:54:33 10° SW 19:00:21 72° WNW 19:06:12 10° NNE visible
18 Dec - 20:44:00 10° WNW 20:47:44 17° NW 20:51:30 10° N visible
19 Dec - 02:09:38 10° NNW 02:14:58 32° NE 02:20:23 10° ESE night (unlit)
19 Dec - 03:55:41 10° NW 04:01:33 54° WSW 04:07:33 10° S night (unlit)
19 Dec - 17:18:26 10° SSE 17:23:13 27° ESE 17:28:03 10° NE daylight
19 Dec - 19:03:34 10° SW 19:09:11 51° NW 19:14:54 10° NNE visible
19 Dec - 20:54:13 10° WNW 20:56:58 13° NNW 20:59:46 10° N visible
20 Dec - 00:33:40 10° N 00:35:57 12° NNE 00:38:16 10° NE night (unlit)
20 Dec - 02:18:14 10° NNW 02:23:57 43° NE 02:29:47 10° ESE night (unlit)
20 Dec - 04:04:42 10° NW 04:10:11 37° WSW 04:15:48 10° S night (unlit)
20 Dec - 17:26:25 10° S 17:31:47 41° ESE 17:37:12 10° NE daylight
20 Dec - 19:12:47 10° WSW 19:18:07 37° NW 19:23:32 10° NNE visible
20 Dec - 21:05:03 10° NW 21:06:19 11° NNW 21:07:34 10° NNW visible
